�������l�o���
Date,Time,MP-1(��Sv/h),MP-2(��Sv/h),MP-3(��Sv/h),MP-4(��Sv/h),MP-5(��Sv/h),MP-6(��Sv/h),MP-7(��Sv/h),MP-8(��Sv/h),����,����(m/s),���J
2019/05/04,00:00,0.754,1.100,0.758,1.392,1.019,0.437,0.764,0.726,�k�k��,8.6,��
2019/05/04,00:10,0.752,1.100,0.758,1.393,1.019,0.436,0.766,0.726,�k�k��,8.8,��
2019/05/04,00:20,0.754,1.099,0.757,1.393,1.018,0.436,0.765,0.723,�k�k��,8.9,��
2019/05/04,00:30,0.753,1.100,0.756,1.391,1.019,0.435,0.765,0.725,�k�k��,8.3,��
2019/05/04,00:40,0.753,1.100,0.758,1.393,1.018,0.435,0.764,0.725,�k�k��,7.8,��
2019/05/04,00:50,0.752,1.101,0.758,1.391,1.018,0.437,0.767,0.725,�k�k��,5.7,��
2019/05/04,01:00,0.753,1.100,0.757,1.391,1.019,0.436,0.766,0.724,�k�k��,4.8,��
2019/05/04,01:10,0.753,1.101,0.757,1.390,1.016,0.435,0.766,0.725,�k�k��,5.8,��
2019/05/04,01:20,0.752,1.098,0.757,1.392,1.016,0.435,0.766,0.725,�k�k��,5.0,��
2019/05/04,01:30,0.752,1.100,0.758,1.394,1.016,0.436,0.765,0.725,�k�k��,4.7,��
2019/05/04,01:40,0.752,1.099,0.758,1.393,1.019,0.435,0.765,0.724,�k�k��,4.6,��
2019/05/04,01:50,0.751,1.097,0.757,1.391,1.017,0.437,0.765,0.724,�k�k��,5.1,��
2019/05/04,02:00,0.753,1.099,0.757,1.393,1.017,0.435,0.764,0.724,�k�k��,4.4,��
2019/05/04,02:10,0.752,1.100,0.757,1.391,1.018,0.435,0.766,0.726,�k�k��,3.7,��
2019/05/04,02:20,0.752,1.101,0.759,1.391,1.017,0.435,0.766,0.724,�k��,3.1,��
2019/05/04,02:30,0.752,1.099,0.758,1.394,1.019,0.436,0.766,0.723,�k�k��,3.2,��
2019/05/04,02:40,0.751,1.101,0.758,1.393,1.017,0.435,0.766,0.727,�k�k��,3.9,��
2019/05/04,02:50,0.751,1.099,0.759,1.392,1.017,0.436,0.766,0.724,�k,4.1,��
2019/05/04,03:00,0.751,1.101,0.757,1.391,1.019,0.436,0.766,0.724,�k,4.6,��
2019/05/04,03:10,0.752,1.097,0.757,1.393,1.018,0.435,0.766,0.725,�k,3.9,��
2019/05/04,03:20,0.752,1.100,0.759,1.392,1.018,0.435,0.765,0.725,�k,3.7,��
2019/05/04,03:30,0.751,1.098,0.756,1.391,1.018,0.435,0.764,0.724,�k,4.3,��
2019/05/04,03:40,0.752,1.099,0.758,1.394,1.016,0.435,0.766,0.726,�k,4.4,��
2019/05/04,03:50,0.752,1.100,0.757,1.391,1.018,0.434,0.766,0.724,�k�k��,4.0,��
2019/05/04,04:00,0.754,1.101,0.756,1.391,1.017,0.435,0.766,0.724,�k�k��,4.5,��
2019/05/04,04:10,0.752,1.098,0.758,1.391,1.018,0.434,0.764,0.724,�k�k��,4.1,��
2019/05/04,04:20,0.751,1.098,0.758,1.393,1.018,0.435,0.765,0.725,�k�k��,4.1,��
2019/05/04,04:30,0.753,1.098,0.758,1.392,1.015,0.436,0.764,0.725,�k�k��,3.9,��
2019/05/04,04:40,0.751,1.099,0.757,1.394,1.017,0.435,0.768,0.724,�k�k��,3.8,��
2019/05/04,04:50,0.752,1.098,0.757,1.392,1.016,0.434,0.766,0.725,�k�k��,3.7,��
2019/05/04,05:00,0.751,1.098,0.755,1.391,1.015,0.435,0.767,0.723,�k�k��,4.2,��
2019/05/04,05:10,0.751,1.099,0.757,1.390,1.017,0.435,0.766,0.725,�k�k��,4.3,��
2019/05/04,05:20,0.753,1.099,0.757,1.391,1.017,0.435,0.766,0.723,�k�k��,5.3,��
2019/05/04,05:30,0.751,1.100,0.757,1.393,1.018,0.435,0.766,0.725,�k�k��,5.0,��
2019/05/04,05:40,0.750,1.100,0.756,1.394,1.016,0.435,0.764,0.725,�k�k��,4.8,��
2019/05/04,05:50,0.753,1.099,0.757,1.393,1.018,0.434,0.767,0.725,�k�k��,4.4,��
2019/05/04,06:00,0.750,1.099,0.756,1.394,1.018,0.435,0.765,0.724,�k�k��,4.3,��
2019/05/04,06:10,0.754,1.099,0.755,1.395,1.017,0.435,0.766,0.724,�k�k��,4.0,��
2019/05/04,06:20,0.752,1.102,0.758,1.393,1.018,0.434,0.765,0.726,�k�k��,4.2,��
2019/05/04,06:30,0.752,1.097,0.756,1.393,1.019,0.435,0.766,0.725,�k�k��,4.4,��
2019/05/04,06:40,0.753,1.102,0.759,1.393,1.019,0.436,0.767,0.726,�k�k��,4.2,��
2019/05/04,06:50,0.755,1.099,0.758,1.394,1.016,0.436,0.768,0.726,�k,3.8,��
2019/05/04,07:00,0.753,1.105,0.758,1.392,1.019,0.436,0.768,0.726,�k�k��,3.8,��
2019/05/04,07:10,0.754,1.102,0.760,1.396,1.018,0.435,0.766,0.727,�k,3.0,��
2019/05/04,07:20,0.754,1.101,0.758,1.395,1.018,0.433,0.767,0.725,�k�k��,3.2,��
2019/05/04,07:30,0.753,1.099,0.760,1.391,1.019,0.433,0.768,0.727,�k,4.3,��
2019/05/04,07:40,0.753,1.100,0.760,1.397,1.018,0.435,0.768,0.725,�k,3.2,��
2019/05/04,07:50,0.752,1.099,0.759,1.395,1.019,0.434,0.767,0.728,�k,2.9,��
2019/05/04,08:00,0.755,1.099,0.759,1.393,1.018,0.433,0.766,0.727,�k,3.7,��
2019/05/04,08:10,0.753,1.099,0.760,1.393,1.017,0.433,0.767,0.724,�k,3.1,��
2019/05/04,08:20,0.755,1.101,0.759,1.394,1.017,0.435,0.766,0.726,�k,3.8,��
2019/05/04,08:30,0.753,1.099,0.759,1.395,1.018,0.433,0.765,0.724,�k�k��,3.8,��
2019/05/04,08:40,0.754,1.103,0.759,1.395,1.019,0.434,0.765,0.722,�k�k��,4.2,��
2019/05/04,08:50,0.753,1.100,0.758,1.395,1.019,0.434,0.764,0.721,�k�k��,5.3,��
2019/05/04,09:00,0.755,1.101,0.760,1.394,1.019,0.434,0.765,0.723,�k�k��,6.1,��
2019/05/04,09:10,0.755,1.102,0.758,1.394,1.018,0.433,0.763,0.723,�k�k��,5.1,��
2019/05/04,09:20,0.755,1.101,0.758,1.393,1.018,0.434,0.763,0.723,�k�k��,5.8,��
2019/05/04,09:30,0.755,1.101,0.759,1.396,1.021,0.434,0.765,0.724,�k�k��,5.6,��
2019/05/04,09:40,0.754,1.102,0.757,1.397,1.019,0.435,0.765,0.723,�k�k��,6.0,��
2019/05/04,09:50,0.754,1.104,0.759,1.396,1.020,0.434,0.765,0.722,�k�k��,5.7,��
2019/05/04,10:00,0.754,1.103,0.759,1.397,1.020,0.434,0.765,0.724,�k�k��,6.0,��
2019/05/04,10:10,0.754,1.104,0.758,1.395,1.019,0.434,0.766,0.725,�k�k��,5.4,��
2019/05/04,10:20,0.756,1.104,0.758,1.397,1.019,0.434,0.764,0.723,�k�k��,4.4,��
2019/05/04,10:30,0.752,1.105,0.760,1.396,1.024,0.434,0.765,0.724,�k��,3.1,��
2019/05/04,10:40,0.754,1.104,0.758,1.397,1.021,0.435,0.764,0.724,�k��,2.8,��
2019/05/04,10:50,0.754,1.106,0.758,1.399,1.023,0.434,0.764,0.724,�k��,3.3,��
2019/05/04,11:00,0.756,1.103,0.758,1.399,1.022,0.435,0.765,0.724,�k��,2.6,��
2019/05/04,11:10,0.755,1.105,0.758,1.396,1.021,0.432,0.765,0.725,���k��,3.2,��
2019/05/04,11:20,0.756,1.106,0.759,1.395,1.023,0.434,0.767,0.723,���k��,3.0,��
2019/05/04,11:30,0.754,1.106,0.758,1.393,1.023,0.436,0.767,0.725,�k��,2.6,��
2019/05/04,11:40,0.757,1.106,0.760,1.393,1.024,0.436,0.766,0.723,��,2.0,��
2019/05/04,11:50,0.756,1.109,0.761,1.395,1.024,0.435,0.766,0.724,���k��,1.5,��
2019/05/04,12:00,0.755,1.109,0.758,1.396,1.023,0.436,0.766,0.723,���k��,2.2,��
2019/05/04,12:10,0.758,1.106,0.759,1.394,1.025,0.434,0.766,0.725,��,1.5,��
2019/05/04,12:20,0.757,1.110,0.761,1.394,1.028,0.437,0.765,0.726,���쓌,1.7,��
2019/05/04,12:30,0.755,1.109,0.759,1.395,1.027,0.438,0.766,0.725,��,1.9,��
2019/05/04,12:40,0.757,1.108,0.760,1.397,1.028,0.435,0.766,0.725,��,2.3,��
2019/05/04,12:50,0.760,1.110,0.759,1.398,1.026,0.435,0.767,0.724,���k��,1.7,��
2019/05/04,13:00,0.757,1.110,0.761,1.400,1.026,0.436,0.767,0.725,���k��,2.2,��
2019/05/04,13:10,0.757,1.112,0.763,1.399,1.027,0.435,0.767,0.723,���k��,1.9,��
2019/05/04,13:20,0.759,1.110,0.762,1.400,1.027,0.436,0.767,0.726,��,2.3,��
2019/05/04,13:30,0.758,1.110,0.761,1.402,1.028,0.437,0.767,0.724,��,1.7,��
2019/05/04,13:40,0.759,1.111,0.761,1.401,1.028,0.436,0.768,0.726,���쓌,2.2,��
2019/05/04,13:50,0.758,1.112,0.761,1.401,1.031,0.435,0.767,0.726,�쓌,2.8,��
2019/05/04,14:00,0.760,1.110,0.762,1.402,1.030,0.436,0.767,0.725,��쓌,2.0,��
2019/05/04,14:10,0.757,1.114,0.763,1.398,1.029,0.438,0.767,0.725,�쓌,2.9,��
2019/05/04,14:20,0.759,1.115,0.763,1.400,1.030,0.435,0.767,0.725,�쓌,2.9,��
2019/05/04,14:30,0.757,1.113,0.761,1.399,1.029,0.436,0.768,0.725,�쓌,3.5,��
2019/05/04,14:40,0.757,1.115,0.761,1.398,1.031,0.436,0.767,0.725,�쓌,3.6,��
2019/05/04,14:50,0.758,1.113,0.761,1.399,1.030,0.437,0.766,0.725,�쓌,3.3,��
2019/05/04,15:00,0.760,1.113,0.761,1.397,1.031,0.435,0.767,0.725,�쓌,2.9,��
2019/05/04,15:10,0.758,1.114,0.763,1.399,1.030,0.435,0.767,0.725,�쓌,3.8,��
2019/05/04,15:20,0.760,1.114,0.763,1.399,1.030,0.436,0.767,0.725,�쓌,3.4,��
2019/05/04,15:30,0.760,1.114,0.764,1.400,1.033,0.436,0.768,0.725,�쓌,3.5,��
2019/05/04,15:40,0.760,1.115,0.763,1.400,1.030,0.435,0.767,0.724,��쓌,4.3,��
2019/05/04,15:50,0.759,1.117,0.762,1.402,1.029,0.435,0.768,0.726,��쓌,3.7,��
2019/05/04,16:00,0.758,1.114,0.763,1.398,1.032,0.436,0.769,0.725,��쓌,3.6,��
2019/05/04,16:10,0.760,1.114,0.764,1.404,1.029,0.436,0.767,0.725,��쓌,2.6,��
2019/05/04,16:20,0.759,1.116,0.765,1.400,1.032,0.437,0.768,0.724,��쓌,3.3,��
2019/05/04,16:30,0.761,1.116,0.764,1.401,1.031,0.438,0.767,0.726,��,3.6,��
2019/05/04,16:40,0.758,1.115,0.764,1.401,1.031,0.439,0.767,0.726,��,4.6,��
2019/05/04,16:50,0.761,1.118,0.764,1.401,1.031,0.439,0.768,0.725,��,4.5,��
2019/05/04,17:00,0.761,1.119,0.764,1.402,1.033,0.440,0.767,0.725,��,4.3,��
2019/05/04,17:10,0.759,1.118,0.764,1.400,1.032,0.439,0.767,0.726,��,4.4,��
2019/05/04,17:20,0.759,1.119,0.762,1.402,1.030,0.440,0.768,0.728,��,3.9,��
2019/05/04,17:30,0.759,1.119,0.764,1.401,1.030,0.440,0.767,0.726,��,4.8,��
2019/05/04,17:40,0.759,1.117,0.764,1.402,1.030,0.440,0.768,0.728,��,4.5,��
2019/05/04,17:50,0.759,1.120,0.764,1.404,1.033,0.440,0.766,0.728,��,4.5,��
2019/05/04,18:00,0.758,1.121,0.765,1.402,1.031,0.439,0.767,0.730,��쐼,5.4,��
2019/05/04,18:10,0.757,1.118,0.763,1.403,1.032,0.437,0.767,0.728,��쐼,5.5,��
2019/05/04,18:20,0.761,1.119,0.762,1.402,1.035,0.438,0.765,0.727,��,5.3,��
2019/05/04,18:30,0.762,1.119,0.764,1.400,1.036,0.439,0.766,0.729,��,4.7,��
2019/05/04,18:40,0.763,1.118,0.765,1.403,1.034,0.438,0.767,0.728,��,5.7,��
2019/05/04,18:50,0.761,1.120,0.764,1.402,1.033,0.440,0.769,0.729,��,6.5,��
2019/05/04,19:00,0.762,1.120,0.767,1.407,1.032,0.440,0.769,0.727,��,5.8,��
2019/05/04,19:10,0.761,1.119,0.766,1.406,1.033,0.439,0.769,0.727,��,6.0,��
2019/05/04,19:20,0.760,1.115,0.765,1.404,1.035,0.439,0.770,0.727,��,6.5,��
2019/05/04,19:30,0.763,1.120,0.765,1.406,1.034,0.438,0.768,0.726,��,6.5,��
2019/05/04,19:40,0.761,1.119,0.765,1.405,1.031,0.440,0.769,0.728,��,6.2,��
2019/05/04,19:50,0.763,1.120,0.767,1.403,1.032,0.439,0.768,0.728,��,6.1,��
2019/05/04,20:00,0.761,1.118,0.764,1.407,1.033,0.439,0.769,0.727,��,5.6,��
2019/05/04,20:10,0.760,1.120,0.764,1.407,1.033,0.440,0.768,0.728,��,5.4,��
2019/05/04,20:20,0.762,1.119,0.766,1.407,1.035,0.439,0.767,0.725,��,5.6,��
2019/05/04,20:30,0.761,1.118,0.765,1.403,1.032,0.440,0.770,0.727,��,6.3,��
2019/05/04,20:40,0.761,1.115,0.766,1.406,1.031,0.440,0.770,0.728,��,6.5,��
2019/05/04,20:50,0.761,1.115,0.765,1.408,1.032,0.438,0.769,0.725,��,6.4,��
2019/05/04,21:00,0.762,1.117,0.766,1.407,1.031,0.440,0.767,0.728,��,6.7,��
2019/05/04,21:10,0.760,1.117,0.767,1.406,1.033,0.438,0.771,0.726,��,7.7,��
2019/05/04,21:20,0.761,1.117,0.766,1.407,1.034,0.439,0.769,0.727,��,7.4,��
2019/05/04,21:30,0.763,1.118,0.765,1.403,1.032,0.439,0.769,0.728,��,7.3,��
2019/05/04,21:40,0.759,1.117,0.765,1.408,1.034,0.440,0.769,0.726,��,6.6,��
2019/05/04,21:50,0.763,1.117,0.766,1.406,1.033,0.440,0.770,0.729,��쐼,6.4,��
2019/05/04,22:00,0.762,1.116,0.765,1.405,1.034,0.439,0.770,0.728,��쐼,5.6,��
2019/05/04,22:10,0.763,1.116,0.766,1.403,1.034,0.439,0.769,0.728,��쐼,5.8,��
2019/05/04,22:20,0.761,1.116,0.767,1.407,1.034,0.440,0.769,0.728,��,6.1,��
2019/05/04,22:30,0.760,1.118,0.763,1.404,1.032,0.439,0.769,0.728,��,6.5,��
2019/05/04,22:40,0.761,1.115,0.764,1.404,1.032,0.440,0.769,0.728,��,6.4,��
2019/05/04,22:50,0.759,1.116,0.765,1.404,1.031,0.439,0.769,0.727,��쐼,4.6,��
2019/05/04,23:00,0.761,1.116,0.765,1.407,1.032,0.438,0.770,0.729,��쐼,4.6,��
2019/05/04,23:10,0.760,1.117,0.766,1.407,1.034,0.439,0.768,0.726,��쐼,3.4,��
2019/05/04,23:20,0.760,1.116,0.764,1.405,1.033,0.439,0.769,0.727,��쐼,3.7,��
2019/05/04,23:30,0.759,1.116,0.764,1.403,1.032,0.440,0.768,0.727,�쐼,3.0,��
2019/05/04,23:40,0.761,1.114,0.764,1.405,1.032,0.439,0.769,0.727,�쐼,2.5,��
2019/05/04,23:50,0.763,1.115,0.764,1.406,1.030,0.440,0.768,0.726,���쐼,2.2,��
